Mountain View, CA

6:26 PM PST on February 24, 2017 (GMT -0800)
Moffett Federal Air Field

Weather History for KNUQ - May, 2014

Change the Weather History Date:

Sunday, May 4, 2014

  Actual Average Record
Temperature  
Mean Temperature 63 °F 61 °F  
Max Temperature 72 °F 71 °F 88 °F (1990)
Min Temperature 53 °F 52 °F 38 °F (1952)
Degree Days  
Heating Degree Days 2    
Month to date heating degree days 4  
Since 1 July heating degree days 1742  
Cooling Degree Days 0    
Month to date cooling degree days 12  
Year to date cooling degree days 38  
Growing Degree Days 12 (Base 50)    
Moisture  
Dew Point 48 °F    
Average Humidity 62    
Maximum Humidity 77    
Minimum Humidity 47    
Precipitation  
Precipitation 0.00 in 0.03 in 0.56 in (2005)
Month to date precipitation 0.00 0.11  
Year to date precipitation 5.18 9.17  
Since 1 July precipitation 6.44  
Sea Level Pressure  
Sea Level Pressure 30.06 in    
Wind  
Wind Speed 7 mph (NW)    
Max Wind Speed 23 mph    
Max Gust Speed 28 mph    
Visibility 10 miles    
Events      
T = Trace of Precipitation, MM = Missing Value Source: NWS Daily Summary

Daily Weather History Graph

Daily Weather History Graph

Search for Another Location

Airport or City:

Trip Planner

Search our weather history database for the weather conditions in past years. The results will help you decide how hot, cold, wet, or windy it might be!

Date:

Astronomy

May. 04, 2014 Rise Set
Actual Time 6:09 AM PDT 8:00 PM PDT
Civil Twilight 5:41 AM PDT 8:29 PM PDT
Nautical Twilight 5:07 AM PDT 9:03 PM PDT
Astronomical Twilight 4:30 AM PDT 9:40 PM PDT
Moon 10:39 AM PDT (5/4) 12:09 AM PDT (5/4)
Length of Visible Light 14h 47m
Length of Day
13h 51m
Waxing Crescent, 28% of the Moon is Illuminated
May 4
Waxing Crescent
May 6
First Quarter
May 14
Full
May 21
Last Quarter
May 28
New

Hourly Weather History & Observations

Time (PDT) Temp. Dew Point Humidity Pressure Visibility Wind Dir Wind Speed Gust Speed Precip Events Conditions
12:56 AM 55.9 °F 46.9 °F 72% 30.06 in 10.0 mi Calm Calm - N/A   Clear
1:56 AM 55.9 °F 46.9 °F 72% 30.06 in 10.0 mi Calm Calm - N/A   Clear
2:56 AM 55.9 °F 46.9 °F 72% 30.05 in 10.0 mi Calm Calm - N/A   Clear
3:56 AM 55.0 °F 46.9 °F 74% 30.06 in 10.0 mi Calm Calm - N/A   Clear
4:56 AM 55.0 °F 46.9 °F 74% 30.05 in 10.0 mi Calm Calm - N/A   Clear
5:56 AM 54.0 °F 46.9 °F 77% 30.06 in 10.0 mi Calm Calm - N/A   Clear
6:56 AM 55.0 °F 46.9 °F 74% 30.06 in 10.0 mi SSW 3.5 mph - N/A   Partly Cloudy
7:56 AM 57.9 °F 48.0 °F 70% 30.07 in 10.0 mi Calm Calm - N/A   Clear
8:56 AM 60.1 °F 50.0 °F 69% 30.08 in 10.0 mi NW 4.6 mph - N/A   Clear
9:33 AM 62.6 °F 50.0 °F 63% 30.07 in 10.0 mi Variable 3.5 mph - N/A   Mostly Cloudy
9:56 AM 64.0 °F 51.1 °F 63% 30.08 in 10.0 mi NNE 8.1 mph - N/A   Mostly Cloudy
10:56 AM 66.0 °F 50.0 °F 56% 30.08 in 10.0 mi NW 10.4 mph 20.7 mph N/A   Partly Cloudy
11:56 AM 66.0 °F 51.1 °F 59% 30.08 in 10.0 mi North 12.7 mph - N/A   Mostly Cloudy
12:56 PM 66.9 °F 50.0 °F 54% 30.07 in 10.0 mi North 16.1 mph - N/A   Mostly Cloudy
1:56 PM 70.0 °F 48.9 °F 47% 30.06 in 10.0 mi North 19.6 mph - N/A   Clear
2:56 PM 70.0 °F 48.0 °F 46% 30.05 in 10.0 mi West 10.4 mph - N/A   Clear
3:56 PM 70.0 °F 48.0 °F 46% 30.04 in 10.0 mi NW 12.7 mph 19.6 mph N/A   Clear
4:56 PM 69.1 °F 48.0 °F 47% 30.02 in 10.0 mi WNW 9.2 mph - N/A   Clear
5:56 PM 66.9 °F 46.9 °F 49% 30.03 in 10.0 mi WNW 9.2 mph - N/A   Clear
6:56 PM 63.0 °F 48.0 °F 58% 30.03 in 10.0 mi NW 12.7 mph 19.6 mph N/A   Clear
7:56 PM 61.0 °F 48.9 °F 64% 30.04 in 10.0 mi WNW 8.1 mph - N/A   Clear
8:56 PM 59.0 °F 48.9 °F 69% 30.06 in 10.0 mi WNW 8.1 mph - N/A   Clear
9:56 PM 57.9 °F 48.9 °F 72% 30.07 in 10.0 mi NW 5.8 mph - N/A   Clear
10:56 PM 57.0 °F 48.0 °F 72% 30.08 in 10.0 mi NW 5.8 mph - N/A   Clear
11:56 PM 57.0 °F 48.0 °F 72% 30.08 in 10.0 mi Calm Calm - N/A   Clear